Flag for Poland Weather past 2 weeks in Poznan, Poland

Now
39 °F

Clear.


Feels Like: 36 °F
Forecast: 35 / 60 °F
Wind: 5 mph from West

Location: Poznan Airport

Current Time: Apr 21, 2015 at 5:54:54 AM

Latest Report: Apr 21, 2015 at 5:00 AM


Visibility: 10 mi

Pressure: 30.21 "Hg

Humidity: 65%

Dew point: 28 °F

Location of PoznanLocation

Historic Weather in Poznan — Graph

°F

Poznan temperature yesterday

Maximum temperature yesterday: 63 °F (at 3:00 PM)
Minimum temperature yesterday: 39 °F (at 1:30 AM)
Average temperature yesterday: 50 °F

Past Weeks' High & Low Weather Summary

 TemperatureHumidityPressure
High72 °F (Apr 11, 4:00 PM)93% (Apr 6, 8:00 AM)30.51 "Hg (Apr 6, 8:00 AM)
Low27 °F (Apr 7, 5:00 AM)27% (Apr 9, 5:00 PM)29.74 "Hg (Apr 15, 11:00 PM)
Average48 °F57%30.16 "Hg
* Reported Apr 6 4:00 AM — Apr 21 4:30 AM, Poznan, Weather by CustomWeather, © 2015

Note: Actual official high and low records may vary slightly from our data, if they occured in-between our weather recording intervals... More about our weather records

Advertising

Poznan weather history for previous 24 hours

 ConditionsComfort  
Time TempWeatherWind HumidityBarometerVisibility
4:30 AM
Tue, Apr 21
37 °FClear.6 mph70%30.21 "Hg10 mi
4:00 AM37 °FClear.5 mph75%30.21 "Hg10 mi
3:30 AM39 °FClear.2 mph70%30.24 "Hg10 mi
3:00 AM37 °FClear.7 mph70%30.24 "Hg10 mi
2:30 AM37 °FClear.6 mph70%30.24 "Hg10 mi
2:00 AM39 °FClear.6 mph65%30.24 "Hg10 mi
1:30 AM39 °FClear.8 mph65%30.24 "Hg10 mi
1:00 AM41 °FClear.5 mph61%30.24 "Hg10 mi
12:30 AM43 °FClear.6 mph61%30.24 "Hg10 mi
12:00 AM45 °FClear.8 mph57%30.24 "Hg10 mi
11:30 PM
Mon, Apr 20
46 °FClear.7 mph50%30.24 "Hg10 mi
11:00 PM46 °FClear.8 mph50%30.21 "Hg10 mi
10:30 PM48 °FClear.12 mph46%30.21 "Hg10 mi
10:00 PM48 °FClear.9 mph46%30.21 "Hg10 mi
9:30 PM50 °FClear.9 mph43%30.21 "Hg10 mi
9:00 PM50 °FClear.8 mph40%30.21 "Hg10 mi
8:30 PM50 °FSunny.10 mph37%30.21 "Hg10 mi
8:00 PM52 °FSunny.9 mph35%30.18 "Hg10 mi
7:30 PM54 °FSunny.9 mph30%30.18 "Hg10 mi
7:00 PM55 °FSunny.14 mph31%30.18 "Hg10 mi
6:30 PM57 °FSunny.16 mph31%30.15 "Hg10 mi
6:00 PM59 °FPassing clouds.15 mph29%30.15 "HgN/A
5:30 PM59 °FPassing clouds.17 mph29%30.15 "HgN/A
5:00 PM59 °FPassing clouds.20 mph29%30.12 "HgN/A
4:30 PM61 °FPassing clouds.17 mph27%30.12 "HgN/A
4:00 PM61 °FSunny.17 mph29%30.12 "Hg10 mi
3:30 PM61 °FSunny.22 mph29%30.12 "Hg10 mi
3:00 PM63 °FSunny.18 mph27%30.12 "Hg10 mi
2:30 PM61 °FSunny.21 mph31%30.12 "Hg10 mi
2:00 PM61 °FSunny.21 mph34%30.12 "Hg10 mi
1:30 PM59 °FSunny.20 mph36%30.12 "Hg10 mi
1:00 PM59 °FSunny.22 mph36%30.12 "Hg10 mi
12:30 PM59 °FSunny.21 mph39%30.12 "Hg10 mi
12:00 PM59 °FSunny.22 mph39%30.12 "Hg10 mi
11:30 AM57 °FPassing clouds.17 mph41%30.12 "HgN/A
11:00 AM55 °FPassing clouds.16 mph51%30.12 "HgN/A
10:30 AM55 °FPassing clouds.13 mph51%30.12 "HgN/A
10:00 AM52 °FSunny.14 mph58%30.12 "Hg10 mi
9:30 AM50 °FPassing clouds.12 mph62%30.12 "HgN/A
9:00 AM46 °FSunny.14 mph71%30.12 "Hg10 mi
8:30 AM45 °FSunny.14 mph71%30.09 "Hg10 mi
8:00 AM43 °FSunny.14 mph76%30.09 "Hg10 mi
7:30 AM41 °FSunny.13 mph81%30.09 "Hg10 mi
7:00 AM41 °FSunny.13 mph76%30.09 "Hg10 mi
6:30 AM39 °FClear.12 mph81%30.09 "Hg10 mi
6:00 AM39 °FClear.14 mph75%30.09 "Hg10 mi
5:30 AM39 °FClear.13 mph75%30.09 "Hg10 mi
5:00 AM39 °FClear.12 mph75%30.09 "Hg10 mi
Weather by CustomWeather, © 2015

See weather overviewHow to use our weather pages